Location: Newark
(7.1028°S, 35.3258°W)
Time: 04:55:21
(UTC+00:00)

Vanguard 3 - Pass Details

Date: 23 February 2020
Orbit: 508 x 3263 km, 33.4° (Epoch: 07 April)

Event Time Altitude Azimuth Distance (km) Brightness Sun altitude
Rises 17:19:04 0° 331° (NNW) 5,388 11.5 49.3°
Reaches altitude 10° 17:22:49 10° 342° (NNW) 4,762 11.3 48.4°
Maximum altitude 17:35:27 33° 41° (NE) 4,118 10.7 45.3°
Drops below altitude 10° 17:51:47 10° 96° (E) 6,203 11.3 41.2°
Sets 17:57:28 0° 105° (ESE) 7,185 11.5 39.8°
